Home   Weather   San Salvador   Past weeks

Flag for El Salvador Past Weather in San Salvador, El Salvador — Yesterday and Last 2 Weeks

Now
72 °F

Fog.


Feels Like: 67 °F
Forecast: 63 / 80 °F
Wind: 2 mph from West

Location: San Salvador / Ilopango

Current Time: Feb 24, 2017 at 9:01:44 am

Latest Report: Feb 24, 2017 at 7:50 am


Visibility: 3 mi

Pressure: 29.95 "Hg (27.72 "Hg at 667m altitude)

Humidity: 94%

Dew Point: 70 °F

Location of San SalvadorLocation

Past Weather in San Salvador — Graph

°F

San Salvador Temperature Yesterday

Maximum temperature yesterday: 84 °F (at 12:50 pm)
Minimum temperature yesterday: 68 °F (at 11:50 pm)
Average temperature yesterday: 76 °F

High & Low Weather Summary for the Past Weeks

 TemperatureHumidityPressure
High93 °F (Feb 10, 2:50 pm)100% (Feb 24, 5:50 am)30.12 "Hg (Feb 24, 5:50 am)
Low63 °F (Feb 15, 6:50 am)21% (Feb 13, 1:50 pm)29.86 "Hg (Feb 23, 2:50 pm)
Average77 °F65%30.01 "Hg
* Reported Feb 9 7:50 am — Feb 24 7:50 am, San Salvador, Weather by CustomWeather, © 2017

Note: Actual official high and low records may vary slightly from our data, if they occured in-between our weather recording intervals... More about our weather records

Advertising

San Salvador Weather History for the Previous 24 Hours

Scroll right to see more
 ConditionsComfort  
Time TempWeatherWind HumidityBarometerVisibility
7:50 am
Fri, Feb 24
72 °FFog.2 mph94%29.95 "Hg3 mi
6:50 am66 °FFog.2 mph100%29.95 "Hg2 mi
5:50 am66 °FFog.3 mph100%29.92 "Hg2 mi
11:50 pm
Thu, Feb 23
68 °FPassing clouds.No wind94%29.95 "HgN/A
10:50 pm70 °FPassing clouds.2 mph88%29.95 "HgN/A
9:50 pm72 °FPassing clouds.2 mph88%29.92 "HgN/A
8:50 pm73 °FPassing clouds.6 mph83%29.92 "HgN/A
7:50 pm73 °FPassing clouds.5 mph89%29.89 "HgN/A
6:50 pm73 °FPassing clouds.5 mph89%29.89 "HgN/A
5:50 pm77 °FScattered clouds.3 mph79%29.86 "HgN/A
4:50 pm79 °FScattered clouds.5 mph74%29.86 "HgN/A
3:50 pm81 °FPartly sunny.7 mph66%29.86 "HgN/A
2:50 pm82 °FScattered clouds.7 mph62%29.86 "HgN/A
1:50 pm84 °FScattered clouds.6 mph58%29.89 "HgN/A
12:50 pm84 °FScattered clouds.3 mph58%29.92 "HgN/A
11:50 am82 °FScattered clouds.3 mph58%29.95 "Hg5 mi
10:50 am82 °FScattered clouds.3 mph62%29.95 "Hg4 mi
9:50 am79 °FPassing clouds.3 mph79%29.95 "Hg4 mi
Weather by CustomWeather, © 2017

See weather overviewHow to use our weather pages